This is the latest recevied weather packets stored in our database for station/object SP2FH-13. If no packets are shown the sender has not sent any weather packets the latest 10 day(s).
| Time | Temp. | Humidity | Pressure | Rain* | Wind** | Luminosity | Snow |
|---|---|---|---|---|---|---|---|
| 1777869476 | 13.33° C | 56% | 1001.3 hPa | - | - | 77 W/m² | - |
| 1777869174 | 13.33° C | 58% | 1001.3 hPa | - | - | 69 W/m² | - |
| 1777868874 | 12.78° C | 59% | 1001.2 hPa | - | - | 62 W/m² | - |
| 1777868572 | 12.78° C | 60% | 1001.2 hPa | - | - | 58 W/m² | - |
| 1777868271 | 12.22° C | 61% | 1001.3 hPa | - | - | 49 W/m² | - |
| 1777867969 | 12.22° C | 61% | 1001.3 hPa | - | - | 40 W/m² | - |
| 1777867668 | 11.67° C | 63% | 1001.2 hPa | - | - | 36 W/m² | - |
| 1777867367 | 11.11° C | 65% | 1001.2 hPa | - | - | 34 W/m² | - |
| 1777867066 | 11.11° C | 66% | 1001.2 hPa | - | - | 31 W/m² | - |
| 1777866765 | 11.11° C | 65% | 1001.2 hPa | - | - | 29 W/m² | - |
| 1777866464 | 10.56° C | 66% | 1001.2 hPa | - | - | 27 W/m² | - |
| 1777865861 | 10.56° C | 66% | 1001.3 hPa | - | - | 19 W/m² | - |
| 1777865560 | 11.11° C | 66% | 1001.2 hPa | - | - | 16 W/m² | - |
| 1777865259 | 10.56° C | 65% | 1001.2 hPa | - | - | 13 W/m² | - |
| 1777864356 | 11.11° C | 64% | 1001.1 hPa | - | - | 5 W/m² | - |
| 1777864055 | 11.67° C | 63% | 1001.2 hPa | - | - | 3 W/m² | - |
| 1777863453 | 11.67° C | 61% | 1001.2 hPa | - | - | 1 W/m² | - |
| 1777863151 | 11.11° C | 62% | 1001.2 hPa | - | - | 1 W/m² | - |
| 1777847491 | 16.67° C | 46% | 1001.5 hPa | - | - | - | - |
| 1777845984 | 17.22° C | 44% | 1001.6 hPa | - | - | - | - |
| 1777845382 | 17.78° C | 43% | 1001.7 hPa | - | - | - | - |
| 1777845081 | 17.78° C | 43% | 1001.7 hPa | - | - | - | - |
| 1777844780 | 17.78° C | 43% | 1001.7 hPa | - | - | - | - |
| 1777844479 | 17.22° C | 42% | 1001.6 hPa | - | - | - | - |
| 1777844178 | 17.22° C | 44% | 1001.6 hPa | - | - | - | - |
* Rain since midnight (hover to see other rain measurements)
** Current wind speed in m/s (hover to see current wind gust speed)